User: anonymous
Location: Caltech
(34.1382°N, 118.1253°W)
Time: 16:36:31
(UTC-07:00)
Language:

Iridium 49 - Orbit

View from above orbital plane
View from above orbital plane
View from above satellite
View from above satellite

Ground track
Ground track

The orbit data is extracted from the following two-line orbital elements,

1 25108U 97082E   14234.39973307  .00000179  00000-0  56981-4 0  8806
2 25108 086.3999 325.8798 0002423 112.6620 300.7703 14.34216230872770
Epoch (UTC): 22 August 2014 09:35:36
Eccentricity: 0.0002423
inclination: 86.3999°
perigee height: 776 km
apogee height: 779 km
right ascension of ascending node: 325.8798°
argument of perigee: 112.6620°
revolutions per day: 14.34216230
mean anomaly at epoch: 300.7703°
orbit number at epoch: 87277

The dashed part of the orbit path shows where the satellite is in the earth's shadow,  

DLR